Regional Weather Roundup
Issued by NWS

Home | Current Version | Previous Version | Graphics & Text | Print | Product List | Glossary On
Versions: 1 2 3 4 5 6 7 8 9 10 11 12 13 14 15 16 17 18 19 20 21 22 23 24 25 26 27 28 29 30 31 32 33 34 35 36 37 38 39 40 41 42 43 44 45 46 47 48 49 50
000
ASUS43 KMKX 251100
RWRWI

WISCONSIN REGIONAL WEATHER ROUNDUP
NATIONAL WEATHER SERVICE MILWAUKEE/SULLIVAN WI
500 AM CST SAT FEB 25 2017

NOTE: "FAIR" INDICATES FEW OR NO CLOUDS BELOW 12,000 FEET WITH NO
SIGNIFICANT WEATHER AND/OR OBSTRUCTIONS TO VISIBILITY.

WIZ001-002-006>008-014>016-023>028-251200-
NORTHWEST WISCONSIN

CITY           SKY/WX    TMP DP  RH WIND       PRES   REMARKS
SUPERIOR ARPT  MOCLDY    11   4  74 NW13      29.87S WCI  -4
ASHLAND        CLOUDY    14   7  73 NW10      29.77S WCI   1
HAYWARD        CLOUDY    12   3  67 NW8G21    29.77R WCI   0
SIREN          CLEAR     12   4  70 NW10      29.85S WCI  -2
CUMBERLAND     MOCLDY    12   3  67 NW17G26   29.79R WCI  -5
RICE LAKE      CLOUDY    14   5  68 NW10G20   29.81R WCI   1
CHETEK         CLOUDY    14   6  70 NW7       29.79S WCI   3
LADYSMITH      PTCLDY    13   5  70 NW14      29.75R WCI  -2
EAU CLAIRE     NOT AVBL
MENOMONIE      CLEAR     14   5  65 W15       29.83R WCI  -1
NEW RICHMOND   PTCLDY    15   4  63 NW21G29   29.85S WCI  -3
OSCEOLA        PTCLDY    15   5  65 NW10G20   29.91R WCI   2
$$

WIZ003>005-009-010-017-018-251200-
NORTH CENTRAL WISCONSIN

CITY           SKY/WX    TMP DP  RH WIND       PRES   REMARKS
MANITOWISH WTR LGT SNOW  13  10  88 NW16G23   29.61S WCI  -3
ARBOR VITAE    LGT SNOW  17  12  82 NW17G26     N/A  WCI   1
WOODRUFF       LGT SNOW  17  12  82 NW17G26     N/A  WCI   1
RHINELANDER    LGT SNOW  16  11  80 NW9G17    29.60R WCI   4
EAGLE RIVER    LGT SNOW  14   8  79 NW12      29.57S WCI   0
LAND O LAKES   LGT SNOW  14  10  85 NW10G18   29.58R WCI   1
PHILLIPS       CLOUDY    12   6  77 NW9G17    29.67R WCI   0
TOMAHAWK       CLOUDY    14   9  79 NW13      29.64R WCI   0
MEDFORD        CLOUDY    14   6  72 NW10G21   29.66R WCI   1
MERRILL        NOT AVBL
$$

WIZ029-030-035-036-043>047-251200-
CENTRAL WISCONSIN

CITY           SKY/WX    TMP DP  RH WIND       PRES   REMARKS
WAUSAU         FLURRIES  16   9  74 NW16G26   29.63R WCI   1
MOSINEE        LGT SNOW  16  12  86 NW16G24   29.65S WCI   0
MARSHFIELD     FLURRIES  15   6  67 NW20G26   29.68R WCI  -2
STEVENS POINT  LGT SNOW  15  11  83 W7G16     29.66S WCI   5
WAUPACA        LGT SNOW  20  15  81 NW8       29.66R WCI  11
WAUTOMA        LGT SNOW  17  14  88 NW14      29.70R FOG     WCI   3
WISC RAPIDS    LGT SNOW  16  12  84 NW15      29.70R FOG     WCI   1
CAMP DOUGLAS   FLURRIES  18  12  79 NW9       29.73R WCI   6
$$

WIZ011>013-019>022-031-037>040-048>050-251200-
NORTHEAST WISCONSIN

CITY           SKY/WX    TMP DP  RH WIND       PRES   REMARKS
ANTIGO         LGT SNOW  15  10  81 NW12      29.59R WCI   1
SHAWANO        LGT SNOW  20  17  84 CALM      29.63R
OCONTO         CLOUDY    19  16  87 NW8       29.58R WCI   9
STURGEON BAY   LGT SNOW  20  17  88 NW16G22   29.56R FOG     WCI   6
GREEN BAY      LGT SNOW  20  18  92 NW18      29.61R FOG     WCI   5
MANITOWOC      NOT AVBL
APPLETON       LGT SNOW  19  16  86 NW12      29.61R WCI   7
CLINTONVILLE   LGT SNOW  19  16  86 NW9       29.64R WCI   9
OSHKOSH        LGT SNOW  19  15  84 NW14      29.63R FOG     WCI   6
$$

WIZ032>034-041-042-053>061-251200-
SOUTHWEST WISCONSIN

CITY           SKY/WX    TMP DP  RH WIND       PRES   REMARKS
LA CROSSE      PTCLDY    19   8  62 NW17      29.82R WCI   4
SPARTA         PTCLDY    18  11  75 NW13G29   29.78R HAZE    WCI   4
VIROQUA        CLOUDY    17  11  77 NW15      29.75R WCI   3
BOSCOBEL       FLURRIES  21  14  74 W7        29.80R WCI  12
PRAIRIE DU CHI PTCLDY    20  10  65 NW14G21   29.82R WCI   7
PLATTEVILLE    MOCLDY    19  18  94 NW3       29.77R
$$

WIZ056-057-062-063-064-067-068-251200-
SOUTH CENTRAL WISCONSIN

CITY           SKY/WX    TMP DP  RH WIND       PRES   REMARKS
REEDSBURG      LGT SNOW  17  14  88 NW9G16    29.73R WCI   5
BARABOO/DELLS  LGT SNOW  17  14  87 NW10      29.71R WCI   5
LONE ROCK      NOT AVBL
MINERAL POINT  LGT SNOW  21  18  86 CALM      29.73R
MADISON        LGT SNOW  18  14  84 NW15G22   29.71R FOG     WCI   4
MIDDLETON      CLOUDY    19  17  88 NW8       29.71R WCI   9
WATERTOWN      LGT SNOW  19  17  95 NW12G18   29.66R WCI   6
MONROE         PTCLDY    19  16  86 NW16G24   29.70R WCI   5
JANESVILLE     LGT SNOW  21  19  93 NW13G22   29.70R WCI   9
$$

WIZ051-052-058>065-066-070>072-251200-
SOUTHEAST WISCONSIN

CITY           SKY/WX    TMP DP  RH WIND       PRES   REMARKS
MILWAUKEE      LGT SNOW  23  17  78 W15       29.63R WCI  10
WAUKESHA       CLOUDY    19  18  93 W12G22    29.64R WCI   7
MILWAUKEE/TIMM LGT SNOW  21  18  86 W10       29.63R WCI  10
RACINE         LGT SNOW  23  17  78 W8        29.65R WCI  14
KENOSHA        CLOUDY    23  16  74 NW12G22   29.65R WCI  12
FOND DU LAC    LGT SNOW  20  14  77 NW20      29.64R WCI   4
SHEBOYGAN      LGT SNOW  21  16  81 NW16      29.59R WCI   7
WEST BEND      LGT SNOW  21  19  93 W7        29.60S WCI  13
JUNEAU         LGT SNOW  18  15  88 W5        29.66R VSB 1   WCI  11
$$

LSZ147-162-251200-
LAKE SUPERIOR

STATION/POSITION TIME  TEMP    WIND        PRES    WAVE
                       AIR SEA DIR/SP/G            HT/PER
                 (UTC) (F)     (DEG/KT/KT) (MB)    (FT/S)
DEVILS ISLAND    1000   17     330/ 20/ 23 1009.0S
PORT WING        1030   16     320/ 20/ 24 1009.8S
SAXON HARBOR     1040   20     320/ 19/ 25 1007.1S
$$

LMZ867-665-643>646-251200-
LAKE MICHIGAN

STATION/POSITION TIME  TEMP    WIND        PRES    WAVE
                       AIR SEA DIR/SP/G            HT/PER
                 (UTC) (F)     (DEG/KT/KT) (MB)    (FT/S)
CHAMBERS ISLAND  1040   21     300/  2/  3 1000.0R
NORTHPORT PIER   1040   23     310/  2/  3  999.3S
SISTER BAY       1035   21        CALM       N/A
KEWAUNEE LAKESHO 1030   21     310/ 16/ 20 1000.7R
SHEBOYGAN LAKESH 1000   22     290/  5/  7 1002.4R
PORT WASHINGTON  1030   22     290/  8/ 14 1004.1R
MILWAUKEE LAKESH 1030   23     300/ 12/ 14   N/A
KENOSHA   LAKESH 1000   24     310/ 11/ 18 1003.4
$$

TC  - TEMPERATURE IN CELSIUS
VSB - VISIBILITY IN STATUTE MILES
WCI - WIND CHILL INDEX
HX  - HEAT INDEX





USA.gov is the U.S. government's official web portal to all federal, state and local government web resources and services.